Regional Weather Roundup
Issued by NWS

Home | Current Version | Previous Version | Graphics & Text | Print | Product List | Glossary On
Versions: 1 2 3 4 5 6 7 8 9 10 11 12 13 14 15 16 17 18 19 20 21 22 23 24 25 26 27 28 29 30 31 32 33 34 35 36 37 38 39 40 41 42 43 44 45 46 47 48 49 50
000
ASUS43 KLOT 271458
RWRIL

ILLINOIS REGIONAL WEATHER ROUNDUP
NATIONAL WEATHER SERVICE CHICAGO/ROMEOVILLE IL
900 AM CST SAT DEC 27 2014

NOTE: "FAIR" INDICATES FEW OR NO CLOUDS BELOW 12,000 FEET WITH NO
SIGNIFICANT WEATHER AND/OR OBSTRUCTIONS TO VISIBILITY.

* THESE STATIONS ARE NOT UNDER NWS QUALITY CONTROL. THEY ALSO MAY NOT
  REPORT WEATHER SUCH AS PRECIPITATION OR FOG.

ILZ001-002-007-009-015-016-024-271600-
NORTHWEST ILLINOIS

CITY           SKY/WX    TMP DP  RH WIND       PRES   REMARKS
MOLINE         CLOUDY    36  30  79 W14G28    30.04R WCI  27
$$

ILZ003-004-008-010-011-017-018-271600-
NORTH CENTRAL ILLINOIS

CITY           SKY/WX    TMP DP  RH WIND       PRES   REMARKS
ROCKFORD       NOT AVBL
$$

ILZ005-006-012>014-019>023-271600-
NORTHEAST ILLINOIS

CITY           SKY/WX    TMP DP  RH WIND       PRES   REMARKS
CHICAGO-OHARE  CLOUDY    47  44  90 S14G22    29.93F
CHICAGO-MIDWAY CLOUDY    49  46  90 SW15      29.96F
AURORA         CLOUDY    49  45  86 S14G23    29.96R FOG
WAUKEGAN       NOT AVBL
DUPAGE AIRPORT CLOUDY    47  45  93 S14       29.94S
WHEELING       CLOUDY    47  45  93 S13       29.93F
NORTHERLY ISL    N/A     47  44  90 S13         N/A
$$

LMZ740>746-271600-
SOUTHERN LAKE MICHIGAN

STATION/POSITION SKY/WX   TEMP    WIND        PRES    VSBY  WAVE
                          AIR SEA DIR/SP/G                  HT/PER
                          (F)     (DEG/KT/KT) (MB)    (MI)  (FT/S)
WAUKEGAN HARBOR            47     210/ 18/ 24   N/A
HARRISON CRIB              45     200/ 25/ 29   N/A
BURNHAM HARBOR             47     200/ 10/ 17   N/A
CALUMET HARBOR             46     190/ 13/ 17 1013.8F
MICHIGAN CITY              45     170/ 15/ 19   N/A
$$

ILZ025>027-034>036-040-047-049-050-058-095>099-271600-
WEST-CENTRAL ILLINOIS

CITY           SKY/WX    TMP DP  RH WIND       PRES   REMARKS
$$

ILZ028>032-037-038-041>044-048-051>054-059>061-271600-
CENTRAL ILLINOIS

CITY           SKY/WX    TMP DP  RH WIND       PRES   REMARKS
BLOOMINGTON    CLOUDY    46  46 100 SW18      30.04R FOG
PEORIA         CLOUDY    45  40  82 W16G28    30.05R
SPRINGFIELD    LGT RAIN  49  46  90 SW10      30.08R FOG
TAYLORVILLE    NOT AVBL
$$

ILZ033-039-045-046-055>057-062-063-271600-
EAST-CENTRAL ILLINOIS

CITY           SKY/WX    TMP DP  RH WIND       PRES   REMARKS
CHAMPAIGN      FOG       47  45  93 SW16      30.07R VSB 1
MATTOON        CLOUDY    45  45 100 S13       30.07F FOG
$$

ILZ079-100>102-271600-
SOUTHWEST ILLINOIS

CITY           SKY/WX    TMP DP  RH WIND       PRES   REMARKS
ALTON          CLOUDY    48  46  93 S9        30.11R
BELLEVILLE     CLOUDY    48  48 100 SW8       30.12R
CAHOKIA*       CLOUDY    50  47  89 S5        30.12R
$$

ILZ064>066-069>071-074>076-080>082-084>086-088>090-092>094-271600-
SOUTH-CENTRAL ILLINOIS

CITY           SKY/WX    TMP DP  RH WIND       PRES   REMARKS
CARBONDALE     CLOUDY    48  46  93 S10       30.15R
MARION         CLOUDY    48  48 100 S8        30.17R
$$

ILZ067-068-072-073-078-083-087-091-271600-
SOUTHEAST ILLINOIS

CITY           SKY/WX    TMP DP  RH WIND       PRES   REMARKS
LAWRENCEVILLE  CLOUDY    46  45  96 S8        30.16R FOG
$$

ABBREVIATIONS USED IN REMARKS
   TC - TEMPERATURE IN CELSIUS
  WCI - WIND CHILL INDEX
   HX - HEAT INDEX
  VSB - VISIBILITY
$$




USA.gov is the U.S. government's official web portal to all federal, state and local government web resources and services.